Location: ???????
(55.4362°N, 38.1183°E)
Time: 12:55:10
(UTC+00:00)

Cosmos 2219 Rocket - Pass Details

Date: 27 October 2021
Orbit: 826 x 848 km, 71.0° (Epoch: 01 December)

Event Time Altitude Azimuth Distance (km) Brightness Sun altitude
Rises 17:25:16 0° 217° (SW) 3,362 5.5 -29.4°
Reaches altitude 10° 17:27:41 10° 219° (SW) 2,434 4.8 -29.7°
Enters shadow 17:31:52 52° 232° (SW) 1,033 2.7 -30.2°
